Time,TemperatureF,DewpointF,PressureIn,WindDirection,WindDirectionDegrees,WindSpeedMPH,WindSpeedGustMPH,Humidity,HourlyPrecipIn,Conditions,Clouds,dailyrainin,SoftwareType,DateUTC
2013-09-26 00:00:00,71.3,69.8,29.79,North,360,0.0,0.0,95,0.00,,,0.00,WeatherTracker,2013-09-26 05:00:00,
2013-09-26 00:10:00,71.1,69.9,29.80,North,360,0.0,0.0,96,0.00,,,0.00,WeatherTracker,2013-09-26 05:10:00,
2013-09-26 00:15:00,71.2,70.0,29.79,North,360,0.0,0.0,96,0.00,,,0.00,WeatherTracker,2013-09-26 05:15:00,
2013-09-26 00:25:00,71.4,70.2,29.79,North,360,0.0,0.0,96,0.00,,,0.00,WeatherTracker,2013-09-26 05:25:00,
2013-09-26 00:35:00,71.6,70.4,29.80,East,80,0.0,3.0,96,0.00,,,0.00,WeatherTracker,2013-09-26 05:35:00,
2013-09-26 00:40:00,71.7,70.5,29.79,NNE,31,0.0,6.0,96,0.00,,,0.00,WeatherTracker,2013-09-26 05:40:00,
2013-09-26 00:45:00,71.6,70.4,29.79,ENE,73,0.0,6.0,96,0.00,,,0.00,WeatherTracker,2013-09-26 05:45:00,
2013-09-26 00:50:00,71.5,70.3,29.80,ENE,70,0.0,6.0,96,0.00,,,0.00,WeatherTracker,2013-09-26 05:50:00,
2013-09-26 01:00:00,71.3,70.1,29.80,ENE,62,0.0,5.0,96,0.00,,,0.00,WeatherTracker,2013-09-26 06:00:00,
2013-09-26 01:05:00,71.1,70.2,29.80,ENE,71,1.0,5.0,97,0.00,,,0.00,WeatherTracker,2013-09-26 06:05:00,
2013-09-26 01:10:00,70.8,69.6,29.80,ENE,59,0.0,5.0,96,0.00,,,0.00,WeatherTracker,2013-09-26 06:10:00,
2013-09-26 01:15:00,70.7,69.5,29.80,East,91,0.0,3.0,96,0.00,,,0.00,WeatherTracker,2013-09-26 06:15:00,
2013-09-26 01:25:00,70.5,69.6,29.80,NE,47,2.0,4.0,97,0.00,,,0.00,WeatherTracker,2013-09-26 06:25:00,
2013-09-26 01:30:00,70.4,69.5,29.80,NE,49,0.0,3.0,97,0.00,,,0.00,WeatherTracker,2013-09-26 06:30:00,
2013-09-26 01:40:00,70.4,69.5,29.80,NE,41,0.0,4.0,97,0.00,,,0.00,WeatherTracker,2013-09-26 06:40:00,
2013-09-26 01:45:00,70.3,69.4,29.80,East,84,0.0,4.0,97,0.00,,,0.00,WeatherTracker,2013-09-26 06:45:00,
2013-09-26 01:50:00,70.3,69.4,29.80,NE,49,0.0,6.0,97,0.00,,,0.00,WeatherTracker,2013-09-26 06:50:00,
2013-09-26 01:55:00,70.3,69.4,29.80,ESE,114,0.0,6.0,97,0.00,,,0.00,WeatherTracker,2013-09-26 06:55:00,
2013-09-26 02:00:00,70.3,69.4,29.80,East,82,0.0,7.0,97,0.00,,,0.00,WeatherTracker,2013-09-26 07:00:00,
2013-09-26 02:05:00,70.3,69.4,29.80,East,85,0.0,7.0,97,0.00,,,0.00,WeatherTracker,2013-09-26 07:05:00,
2013-09-26 02:15:00,70.3,69.4,29.80,ENE,67,0.0,0.0,97,0.00,,,0.00,WeatherTracker,2013-09-26 07:15:00,
2013-09-26 02:20:00,70.3,69.4,29.80,ENE,67,0.0,0.0,97,0.00,,,0.00,WeatherTracker,2013-09-26 07:20:00,
2013-09-26 02:25:00,70.2,69.3,29.80,NE,43,0.0,1.0,97,0.00,,,0.00,WeatherTracker,2013-09-26 07:25:00,
2013-09-26 02:35:00,70.1,69.2,29.80,NE,41,0.0,0.0,97,0.00,,,0.00,WeatherTracker,2013-09-26 07:35:00,
2013-09-26 02:40:00,70.1,69.2,29.80,NE,41,0.0,0.0,97,0.00,,,0.00,WeatherTracker,2013-09-26 07:40:00,
2013-09-26 02:50:00,70.0,69.1,29.80,NE,41,0.0,0.0,97,0.00,,,0.00,WeatherTracker,2013-09-26 07:50:00,
2013-09-26 02:55:00,69.8,68.9,29.80,ENE,75,0.0,0.0,97,0.00,,,0.00,WeatherTracker,2013-09-26 07:55:00,
2013-09-26 03:00:00,69.7,68.8,29.80,ENE,75,0.0,0.0,97,0.00,,,0.00,WeatherTracker,2013-09-26 08:00:00,
2013-09-26 03:05:00,69.7,68.8,29.80,ENE,75,0.0,0.0,97,0.00,,,0.00,WeatherTracker,2013-09-26 08:05:00,
2013-09-26 03:10:00,69.7,68.8,29.80,ENE,75,0.0,0.0,97,0.00,,,0.00,WeatherTracker,2013-09-26 08:10:00,
2013-09-26 03:20:00,69.8,69.2,29.81,ENE,74,0.0,0.0,98,0.00,,,0.00,WeatherTracker,2013-09-26 08:20:00,
2013-09-26 03:25:00,69.9,69.3,29.81,ENE,71,0.0,0.0,98,0.00,,,0.00,WeatherTracker,2013-09-26 08:25:00,
2013-09-26 03:30:00,69.8,69.2,29.81,ENE,71,0.0,0.0,98,0.00,,,0.00,WeatherTracker,2013-09-26 08:30:00,
2013-09-26 03:40:00,69.8,69.2,29.81,ENE,69,0.0,0.0,98,0.00,,,0.00,WeatherTracker,2013-09-26 08:40:00,
2013-09-26 03:50:00,69.8,69.2,29.81,NNE,26,0.0,3.0,98,0.00,,,0.00,WeatherTracker,2013-09-26 08:50:00,
2013-09-26 03:55:00,69.7,68.8,29.81,NNE,26,0.0,4.0,97,0.00,,,0.00,WeatherTracker,2013-09-26 08:55:00,
2013-09-26 04:05:00,69.5,68.6,29.81,NNE,26,0.0,5.0,97,0.00,,,0.00,WeatherTracker,2013-09-26 09:05:00,
2013-09-26 04:10:00,69.5,68.6,29.81,NE,35,0.0,3.0,97,0.01,,,0.01,WeatherTracker,2013-09-26 09:10:00,
2013-09-26 04:20:00,69.5,68.9,29.82,North,5,0.0,0.0,98,0.01,,,0.01,WeatherTracker,2013-09-26 09:20:00,
2013-09-26 04:25:00,69.4,68.8,29.82,NNE,30,0.0,3.0,98,0.01,,,0.01,WeatherTracker,2013-09-26 09:25:00,
2013-09-26 04:35:00,69.3,68.7,29.82,NNE,19,0.0,1.0,98,0.01,,,0.01,WeatherTracker,2013-09-26 09:35:00,
2013-09-26 04:40:00,69.0,68.1,29.82,NE,51,0.0,5.0,97,0.01,,,0.01,WeatherTracker,2013-09-26 09:40:00,
2013-09-26 04:45:00,68.9,68.0,29.82,NE,38,0.0,5.0,97,0.01,,,0.01,WeatherTracker,2013-09-26 09:45:00,
2013-09-26 04:55:00,68.8,68.2,29.83,NE,39,0.0,2.0,98,0.01,,,0.01,WeatherTracker,2013-09-26 09:55:00,
2013-09-26 05:05:00,68.6,68.0,29.83,NNE,19,0.0,0.0,98,0.01,,,0.01,WeatherTracker,2013-09-26 10:05:00,
2013-09-26 05:10:00,68.6,68.0,29.83,NNE,19,0.0,0.0,98,0.00,,,0.01,WeatherTracker,2013-09-26 10:10:00,
2013-09-26 05:20:00,68.5,67.9,29.84,East,90,0.0,0.0,98,0.00,,,0.01,WeatherTracker,2013-09-26 10:20:00,
2013-09-26 05:30:00,68.5,67.9,29.84,ENE,77,0.0,0.0,98,0.00,,,0.01,WeatherTracker,2013-09-26 10:30:00,
2013-09-26 05:40:00,68.3,67.7,29.84,ENE,57,0.0,1.0,98,0.00,,,0.01,WeatherTracker,2013-09-26 10:40:00,
2013-09-26 05:50:00,68.0,67.4,29.84,ENE,70,0.0,1.0,98,0.00,,,0.01,WeatherTracker,2013-09-26 10:50:00,
2013-09-26 06:00:00,67.9,67.3,29.84,ENE,69,0.0,0.0,98,0.00,,,0.01,WeatherTracker,2013-09-26 11:00:00,
2013-09-26 06:10:00,67.7,67.1,29.85,NNE,33,0.0,1.0,98,0.00,,,0.01,WeatherTracker,2013-09-26 11:10:00,
2013-09-26 06:15:00,67.7,67.1,29.85,NNE,30,0.0,1.0,98,0.00,,,0.01,WeatherTracker,2013-09-26 11:15:00,
2013-09-26 06:20:00,67.6,67.0,29.86,NNE,14,0.0,2.0,98,0.00,,,0.01,WeatherTracker,2013-09-26 11:20:00,
2013-09-26 06:30:00,67.6,67.0,29.86,NNE,19,0.0,0.0,98,0.00,,,0.01,WeatherTracker,2013-09-26 11:30:00,
2013-09-26 06:35:00,67.5,66.9,29.86,NNE,24,0.0,3.0,98,0.00,,,0.01,WeatherTracker,2013-09-26 11:35:00,
2013-09-26 06:40:00,67.4,66.8,29.86,NNE,17,0.0,3.0,98,0.00,,,0.01,WeatherTracker,2013-09-26 11:40:00,
2013-09-26 06:50:00,67.3,66.7,29.86,NNE,22,0.0,1.0,98,0.00,,,0.01,WeatherTracker,2013-09-26 11:50:00,
2013-09-26 07:00:00,67.2,66.6,29.87,East,92,0.0,0.0,98,0.00,,,0.01,WeatherTracker,2013-09-26 12:00:00,
2013-09-26 07:05:00,67.2,66.6,29.87,NE,42,0.0,2.0,98,0.00,,,0.01,WeatherTracker,2013-09-26 12:05:00,
2013-09-26 07:10:00,67.2,66.6,29.87,NE,50,0.0,2.0,98,0.00,,,0.01,WeatherTracker,2013-09-26 12:10:00,
2013-09-26 07:20:00,67.3,66.7,29.88,NE,46,0.0,0.0,98,0.00,,,0.01,WeatherTracker,2013-09-26 12:20:00,
2013-09-26 07:30:00,67.2,66.6,29.88,ENE,76,0.0,1.0,98,0.00,,,0.01,WeatherTracker,2013-09-26 12:30:00,
2013-09-26 07:40:00,67.1,66.5,29.89,NE,51,0.0,7.0,98,0.00,,,0.01,WeatherTracker,2013-09-26 12:40:00,
2013-09-26 07:50:00,67.2,66.6,29.89,NNE,28,0.0,6.0,98,0.00,,,0.01,WeatherTracker,2013-09-26 12:50:00,
2013-09-26 07:55:00,67.2,66.6,29.89,NE,51,0.0,6.0,98,0.00,,,0.01,WeatherTracker,2013-09-26 12:55:00,
2013-09-26 08:00:00,67.2,66.6,29.90,NNE,30,0.0,5.0,98,0.00,,,0.01,WeatherTracker,2013-09-26 13:00:00,
2013-09-26 08:10:00,67.1,66.5,29.90,ENE,62,0.0,4.0,98,0.00,,,0.01,WeatherTracker,2013-09-26 13:10:00,
2013-09-26 08:15:00,67.2,66.6,29.91,NNE,19,0.0,2.0,98,0.00,,,0.01,WeatherTracker,2013-09-26 13:15:00,
2013-09-26 08:20:00,67.2,66.6,29.91,NNE,22,0.0,1.0,98,0.00,,,0.01,WeatherTracker,2013-09-26 13:20:00,
2013-09-26 08:25:00,67.3,66.7,29.91,ENE,68,0.0,1.0,98,0.00,,,0.01,WeatherTracker,2013-09-26 13:25:00,
2013-09-26 08:35:00,67.4,66.8,29.91,NE,42,0.0,5.0,98,0.00,,,0.01,WeatherTracker,2013-09-26 13:35:00,
2013-09-26 08:40:00,67.4,66.8,29.92,ENE,62,0.0,5.0,98,0.00,,,0.01,WeatherTracker,2013-09-26 13:40:00,
2013-09-26 08:45:00,67.5,66.9,29.92,NNW,344,3.0,4.0,98,0.00,,,0.01,WeatherTracker,2013-09-26 13:45:00,
2013-09-26 08:55:00,67.6,67.0,29.92,NE,36,0.0,3.0,98,0.00,,,0.01,WeatherTracker,2013-09-26 13:55:00,
2013-09-26 09:00:00,67.8,67.2,29.92,NNE,32,0.0,1.0,98,0.00,,,0.01,WeatherTracker,2013-09-26 14:00:00,
2013-09-26 09:10:00,68.2,67.6,29.92,NNE,22,0.0,1.0,98,0.00,,,0.01,WeatherTracker,2013-09-26 14:10:00,
2013-09-26 09:15:00,68.4,67.8,29.92,NNE,22,0.0,0.0,98,0.00,,,0.01,WeatherTracker,2013-09-26 14:15:00,
2013-09-26 09:20:00,68.3,67.7,29.92,NNE,25,0.0,0.0,98,0.00,,,0.01,WeatherTracker,2013-09-26 14:20:00,
2013-09-26 09:25:00,68.4,67.8,29.92,NE,37,0.0,0.0,98,0.00,,,0.01,WeatherTracker,2013-09-26 14:25:00,
2013-09-26 09:35:00,68.4,67.8,29.92,East,81,0.0,4.0,98,0.00,,,0.01,WeatherTracker,2013-09-26 14:35:00,
2013-09-26 09:45:00,68.6,68.0,29.93,ENE,66,0.0,3.0,98,0.00,,,0.01,WeatherTracker,2013-09-26 14:45:00,
2013-09-26 09:50:00,68.8,68.2,29.93,NNE,26,0.0,0.0,98,0.00,,,0.01,WeatherTracker,2013-09-26 14:50:00,
2013-09-26 09:55:00,68.7,68.1,29.93,ENE,70,0.0,0.0,98,0.00,,,0.01,WeatherTracker,2013-09-26 14:55:00,
2013-09-26 10:05:00,68.8,68.2,29.93,North,5,2.0,10.0,98,0.00,,,0.01,WeatherTracker,2013-09-26 15:05:00,
2013-09-26 10:10:00,68.9,68.3,29.93,NNE,24,0.0,10.0,98,0.00,,,0.01,WeatherTracker,2013-09-26 15:10:00,
2013-09-26 10:20:00,69.4,68.8,29.93,NNE,20,0.0,6.0,98,0.00,,,0.01,WeatherTracker,2013-09-26 15:20:00,
2013-09-26 10:25:00,69.7,69.1,29.93,NNE,33,0.0,0.0,98,0.00,,,0.01,WeatherTracker,2013-09-26 15:25:00,
2013-09-26 10:35:00,69.9,69.0,29.93,NNE,17,0.0,1.0,97,0.00,,,0.01,WeatherTracker,2013-09-26 15:35:00,
2013-09-26 10:45:00,70.2,69.0,29.93,NE,53,0.0,0.0,96,0.00,,,0.01,WeatherTracker,2013-09-26 15:45:00,
2013-09-26 10:50:00,70.7,69.5,29.93,NE,47,0.0,0.0,96,0.00,,,0.01,WeatherTracker,2013-09-26 15:50:00,
2013-09-26 10:55:00,70.8,69.3,29.93,NNE,15,0.0,7.0,95,0.00,,,0.01,WeatherTracker,2013-09-26 15:55:00,
2013-09-26 11:05:00,71.0,69.2,29.93,ENE,59,0.0,4.0,94,0.00,,,0.01,WeatherTracker,2013-09-26 16:05:00,
2013-09-26 11:10:00,71.0,69.2,29.93,NE,55,0.0,1.0,94,0.00,,,0.01,WeatherTracker,2013-09-26 16:10:00,
2013-09-26 11:15:00,71.0,68.9,29.93,ENE,63,0.0,3.0,93,0.00,,,0.01,WeatherTracker,2013-09-26 16:15:00,
2013-09-26 11:20:00,71.2,69.1,29.93,ENE,58,0.0,3.0,93,0.00,,,0.01,WeatherTracker,2013-09-26 16:20:00,
2013-09-26 11:25:00,71.3,68.9,29.93,NNE,26,0.0,0.0,92,0.00,,,0.01,WeatherTracker,2013-09-26 16:25:00,
2013-09-26 11:35:00,72.1,69.3,29.93,North,5,0.0,4.0,91,0.00,,,0.01,WeatherTracker,2013-09-26 16:35:00,
2013-09-26 11:45:00,73.5,70.1,29.93,North,355,0.0,3.0,89,0.00,,,0.01,WeatherTracker,2013-09-26 16:45:00,
2013-09-26 11:50:00,73.9,70.1,29.92,NNE,17,0.0,5.0,88,0.00,,,0.01,WeatherTracker,2013-09-26 16:50:00,
2013-09-26 11:55:00,74.2,70.1,29.92,North,360,0.0,5.0,87,0.00,,,0.01,WeatherTracker,2013-09-26 16:55:00,
2013-09-26 12:05:00,74.4,69.9,29.92,NNE,19,0.0,2.0,86,0.00,,,0.01,WeatherTracker,2013-09-26 17:05:00,
2013-09-26 12:15:00,75.0,70.5,29.92,NNE,17,0.0,5.0,86,0.00,,,0.01,WeatherTracker,2013-09-26 17:15:00,
2013-09-26 12:20:00,75.1,69.6,29.92,NNE,12,0.0,4.0,83,0.00,,,0.01,WeatherTracker,2013-09-26 17:20:00,
2013-09-26 12:30:00,75.2,70.0,29.92,NNW,328,0.0,4.0,84,0.00,,,0.01,WeatherTracker,2013-09-26 17:30:00,
2013-09-26 12:35:00,75.4,70.6,29.92,NNW,336,0.0,4.0,85,0.00,,,0.01,WeatherTracker,2013-09-26 17:35:00,
2013-09-26 12:40:00,75.5,70.0,29.91,North,5,0.0,3.0,83,0.00,,,0.01,WeatherTracker,2013-09-26 17:40:00,
2013-09-26 12:45:00,75.6,70.4,29.91,NNW,348,0.0,3.0,84,0.00,,,0.01,WeatherTracker,2013-09-26 17:45:00,
2013-09-26 12:50:00,75.7,70.5,29.91,NE,40,2.0,0.0,84,0.00,,,0.01,WeatherTracker,2013-09-26 17:50:00,
2013-09-26 12:55:00,75.6,70.1,29.91,NE,40,0.0,5.0,83,0.00,,,0.01,WeatherTracker,2013-09-26 17:55:00,
2013-09-26 13:00:00,75.8,70.6,29.91,NNW,346,0.0,5.0,84,0.00,,,0.01,WeatherTracker,2013-09-26 18:00:00,
2013-09-26 13:10:00,76.4,70.5,29.91,North,5,1.0,2.0,82,0.00,,,0.01,WeatherTracker,2013-09-26 18:10:00,
2013-09-26 13:20:00,77.2,71.6,29.91,North,355,0.0,3.0,83,0.00,,,0.01,WeatherTracker,2013-09-26 18:20:00,
2013-09-26 13:25:00,77.9,71.2,29.91,North,360,0.0,1.0,80,0.00,,,0.01,WeatherTracker,2013-09-26 18:25:00,
2013-09-26 13:35:00,79.2,72.1,29.90,NNW,333,0.0,0.0,79,0.00,,,0.01,WeatherTracker,2013-09-26 18:35:00,
2013-09-26 13:40:00,79.1,71.3,29.90,NNW,346,0.0,2.0,77,0.00,,,0.01,WeatherTracker,2013-09-26 18:40:00,
2013-09-26 13:45:00,78.7,71.2,29.90,North,355,0.0,2.0,78,0.00,,,0.01,WeatherTracker,2013-09-26 18:45:00,
2013-09-26 13:55:00,78.8,71.7,29.89,ENE,63,0.0,4.0,79,0.00,,,0.01,WeatherTracker,2013-09-26 18:55:00,
2013-09-26 14:05:00,81.1,71.6,29.89,NNW,341,0.0,1.0,73,0.00,,,0.01,WeatherTracker,2013-09-26 19:05:00,
2013-09-26 14:15:00,81.6,72.1,29.89,NE,35,0.0,4.0,73,0.00,,,0.01,WeatherTracker,2013-09-26 19:15:00,
2013-09-26 14:20:00,81.7,72.2,29.89,NW,309,0.0,1.0,73,0.00,,,0.01,WeatherTracker,2013-09-26 19:20:00,
2013-09-26 14:25:00,82.0,72.9,29.89,NNW,345,0.0,4.0,74,0.00,,,0.01,WeatherTracker,2013-09-26 19:25:00,
2013-09-26 14:35:00,81.6,71.7,29.89,NNW,344,0.0,3.0,72,0.00,,,0.01,WeatherTracker,2013-09-26 19:35:00,
2013-09-26 14:45:00,81.9,72.0,29.88,North,355,0.0,5.0,72,0.00,,,0.01,WeatherTracker,2013-09-26 19:45:00,
2013-09-26 14:50:00,82.5,71.3,29.88,NNE,14,0.0,5.0,69,0.00,,,0.01,WeatherTracker,2013-09-26 19:50:00,
2013-09-26 15:00:00,82.7,71.9,29.88,NE,36,0.0,5.0,70,0.00,,,0.01,WeatherTracker,2013-09-26 20:00:00,
2013-09-26 15:05:00,82.7,71.0,29.88,ENE,64,2.0,5.0,68,0.00,,,0.01,WeatherTracker,2013-09-26 20:05:00,
2013-09-26 15:15:00,81.4,70.2,29.88,NNE,31,0.0,7.0,69,0.00,,,0.01,WeatherTracker,2013-09-26 20:15:00,
2013-09-26 15:25:00,82.0,72.1,29.88,NNE,30,0.0,3.0,72,0.00,,,0.01,WeatherTracker,2013-09-26 20:25:00,
2013-09-26 15:35:00,83.3,72.0,29.89,North,355,0.0,5.0,69,0.00,,,0.01,WeatherTracker,2013-09-26 20:35:00,
2013-09-26 15:40:00,83.3,71.6,29.88,NNE,30,0.0,5.0,68,0.00,,,0.01,WeatherTracker,2013-09-26 20:40:00,
2013-09-26 15:45:00,83.2,70.6,29.89,NNE,18,2.0,7.0,66,0.00,,,0.01,WeatherTracker,2013-09-26 20:45:00,
2013-09-26 15:55:00,82.7,70.2,29.88,NNE,16,0.0,4.0,66,0.00,,,0.01,WeatherTracker,2013-09-26 20:55:00,
2013-09-26 16:00:00,82.4,69.9,29.88,NNE,24,0.0,5.0,66,0.00,,,0.01,WeatherTracker,2013-09-26 21:00:00,
2013-09-26 16:10:00,81.8,68.9,29.88,NE,51,0.0,5.0,65,0.00,,,0.01,WeatherTracker,2013-09-26 21:10:00,
2013-09-26 16:15:00,82.1,70.9,29.88,NNE,28,0.0,3.0,69,0.00,,,0.01,WeatherTracker,2013-09-26 21:15:00,
2013-09-26 16:25:00,81.5,68.6,29.88,NNE,17,4.0,8.0,65,0.00,,,0.01,WeatherTracker,2013-09-26 21:25:00,
2013-09-26 16:30:00,81.5,69.9,29.88,North,360,0.0,8.0,68,0.00,,,0.01,WeatherTracker,2013-09-26 21:30:00,
2013-09-26 16:35:00,81.5,70.3,29.88,ENE,59,0.0,4.0,69,0.00,,,0.01,WeatherTracker,2013-09-26 21:35:00,
2013-09-26 16:45:00,81.2,68.7,29.88,NE,46,3.0,9.0,66,0.00,,,0.01,WeatherTracker,2013-09-26 21:45:00,
2013-09-26 16:50:00,80.8,68.8,29.89,NNE,33,0.0,9.0,67,0.00,,,0.01,WeatherTracker,2013-09-26 21:50:00,
2013-09-26 17:00:00,80.3,68.3,29.89,NNE,29,0.0,4.0,67,0.01,,,0.02,WeatherTracker,2013-09-26 22:00:00,
2013-09-26 17:10:00,80.0,69.3,29.89,NNE,26,0.0,6.0,70,0.01,,,0.02,WeatherTracker,2013-09-26 22:10:00,
2013-09-26 17:15:00,79.9,69.2,29.89,NNE,15,0.0,6.0,70,0.01,,,0.02,WeatherTracker,2013-09-26 22:15:00,
2013-09-26 17:25:00,79.4,68.7,29.89,North,11,0.0,2.0,70,0.01,,,0.02,WeatherTracker,2013-09-26 22:25:00,
2013-09-26 17:30:00,79.2,69.0,29.90,NE,36,0.0,4.0,71,0.01,,,0.02,WeatherTracker,2013-09-26 22:30:00,
2013-09-26 17:35:00,79.0,69.2,29.90,NE,35,0.0,4.0,72,0.01,,,0.02,WeatherTracker,2013-09-26 22:35:00,
2013-09-26 17:40:00,78.7,68.9,29.90,NE,46,0.0,0.0,72,0.01,,,0.02,WeatherTracker,2013-09-26 22:40:00,
2013-09-26 17:50:00,78.3,69.3,29.90,NE,47,0.0,0.0,74,0.01,,,0.02,WeatherTracker,2013-09-26 22:50:00,
2013-09-26 18:00:00,77.4,69.2,29.90,NE,52,0.0,0.0,76,0.00,,,0.02,WeatherTracker,2013-09-26 23:00:00,
2013-09-26 18:05:00,77.0,69.2,29.90,NE,52,0.0,0.0,77,0.00,,,0.02,WeatherTracker,2013-09-26 23:05:00,
2013-09-26 18:10:00,76.6,69.2,29.90,NE,52,0.0,0.0,78,0.00,,,0.02,WeatherTracker,2013-09-26 23:10:00,
2013-09-26 18:20:00,76.3,69.7,29.90,NE,52,0.0,0.0,80,0.00,,,0.02,WeatherTracker,2013-09-26 23:20:00,
2013-09-26 18:30:00,75.8,69.2,29.90,NE,52,0.0,0.0,80,0.00,,,0.02,WeatherTracker,2013-09-26 23:30:00,
2013-09-26 18:35:00,75.6,69.0,29.91,NE,52,0.0,0.0,80,0.00,,,0.02,WeatherTracker,2013-09-26 23:35:00,
2013-09-26 18:45:00,75.2,69.0,29.91,NE,52,0.0,0.0,81,0.00,,,0.02,WeatherTracker,2013-09-26 23:45:00,
2013-09-26 18:55:00,74.4,68.5,29.91,NE,52,0.0,0.0,82,0.00,,,0.02,WeatherTracker,2013-09-26 23:55:00,
2013-09-26 19:05:00,73.8,68.3,29.91,NE,52,0.0,0.0,83,0.00,,,0.02,WeatherTracker,2013-09-27 00:05:00,
2013-09-26 19:10:00,73.4,67.9,29.91,NE,52,0.0,0.0,83,0.00,,,0.02,WeatherTracker,2013-09-27 00:10:00,
2013-09-26 19:15:00,73.0,67.5,29.91,NE,52,0.0,0.0,83,0.00,,,0.02,WeatherTracker,2013-09-27 00:15:00,
2013-09-26 19:20:00,72.7,67.2,29.91,NE,52,0.0,0.0,83,0.00,,,0.02,WeatherTracker,2013-09-27 00:20:00,
2013-09-26 19:25:00,72.5,67.4,29.91,NE,52,0.0,0.0,84,0.00,,,0.02,WeatherTracker,2013-09-27 00:25:00,
2013-09-26 19:30:00,72.4,67.6,29.91,NE,52,0.0,0.0,85,0.00,,,0.02,WeatherTracker,2013-09-27 00:30:00,
2013-09-26 19:40:00,72.3,67.9,29.92,NE,52,0.0,0.0,86,0.00,,,0.02,WeatherTracker,2013-09-27 00:40:00,
2013-09-26 19:45:00,72.1,68.0,29.92,NE,52,0.0,0.0,87,0.00,,,0.02,WeatherTracker,2013-09-27 00:45:00,
2013-09-26 19:55:00,71.8,67.7,29.93,NE,52,0.0,0.0,87,0.00,,,0.02,WeatherTracker,2013-09-27 00:55:00,
2013-09-26 20:05:00,71.6,67.5,29.93,NE,52,0.0,0.0,87,0.00,,,0.02,WeatherTracker,2013-09-27 01:05:00,
2013-09-26 20:10:00,71.6,67.8,29.93,NE,52,0.0,0.0,88,0.00,,,0.02,WeatherTracker,2013-09-27 01:10:00,
2013-09-26 20:20:00,71.4,67.7,29.93,NE,52,0.0,0.0,88,0.00,,,0.02,WeatherTracker,2013-09-27 01:20:00,
2013-09-26 20:25:00,71.3,67.6,29.94,NE,52,0.0,0.0,88,0.00,,,0.02,WeatherTracker,2013-09-27 01:25:00,
2013-09-26 20:35:00,71.1,67.7,29.94,NE,52,0.0,0.0,89,0.00,,,0.02,WeatherTracker,2013-09-27 01:35:00,
2013-09-26 20:40:00,71.0,67.6,29.94,NE,52,0.0,0.0,89,0.00,,,0.02,WeatherTracker,2013-09-27 01:40:00,
2013-09-26 20:45:00,70.9,67.5,29.94,NE,52,0.0,0.0,89,0.00,,,0.02,WeatherTracker,2013-09-27 01:45:00,
2013-09-26 20:50:00,70.8,67.4,29.94,NE,52,0.0,0.0,89,0.00,,,0.02,WeatherTracker,2013-09-27 01:50:00,
2013-09-26 20:55:00,70.6,67.5,29.95,NE,52,0.0,0.0,90,0.00,,,0.02,WeatherTracker,2013-09-27 01:55:00,
2013-09-26 21:00:00,70.6,67.5,29.95,ESE,104,0.0,0.0,90,0.00,,,0.02,WeatherTracker,2013-09-27 02:00:00,
2013-09-26 21:10:00,70.4,67.3,29.95,ESE,104,0.0,0.0,90,0.00,,,0.02,WeatherTracker,2013-09-27 02:10:00,
2013-09-26 21:15:00,70.3,67.2,29.95,ESE,105,0.0,0.0,90,0.00,,,0.02,WeatherTracker,2013-09-27 02:15:00,
2013-09-26 21:20:00,70.2,67.1,29.95,ESE,105,0.0,0.0,90,0.00,,,0.02,WeatherTracker,2013-09-27 02:20:00,
2013-09-26 21:25:00,70.1,67.0,29.95,ESE,112,0.0,0.0,90,0.00,,,0.02,WeatherTracker,2013-09-27 02:25:00,
2013-09-26 21:35:00,69.9,67.1,29.95,ESE,117,0.0,0.0,91,0.00,,,0.02,WeatherTracker,2013-09-27 02:35:00,
2013-09-26 21:40:00,69.7,66.9,29.96,ESE,103,0.0,0.0,91,0.00,,,0.02,WeatherTracker,2013-09-27 02:40:00,
2013-09-26 21:50:00,69.4,66.7,29.96,ESE,112,0.0,1.0,91,0.00,,,0.02,WeatherTracker,2013-09-27 02:50:00,
2013-09-26 21:55:00,69.3,66.6,29.96,SE,130,0.0,1.0,91,0.00,,,0.02,WeatherTracker,2013-09-27 02:55:00,
2013-09-26 22:05:00,68.9,66.2,29.96,SE,127,0.0,0.0,91,0.00,,,0.02,WeatherTracker,2013-09-27 03:05:00,
2013-09-26 22:10:00,68.8,66.1,29.96,ESE,114,0.0,0.0,91,0.00,,,0.02,WeatherTracker,2013-09-27 03:10:00,
2013-09-26 22:15:00,68.6,65.9,29.96,ESE,114,0.0,0.0,91,0.00,,,0.02,WeatherTracker,2013-09-27 03:15:00,
2013-09-26 22:25:00,68.4,65.7,29.96,ESE,114,0.0,0.0,91,0.00,,,0.02,WeatherTracker,2013-09-27 03:25:00,
2013-09-26 22:35:00,68.1,65.4,29.96,ESE,114,0.0,0.0,91,0.00,,,0.02,WeatherTracker,2013-09-27 03:35:00,
2013-09-26 22:45:00,67.7,65.3,29.96,ESE,113,0.0,0.0,92,0.00,,,0.02,WeatherTracker,2013-09-27 03:45:00,
2013-09-26 22:50:00,67.6,64.9,29.96,ESE,113,0.0,0.0,91,0.00,,,0.02,WeatherTracker,2013-09-27 03:50:00,
2013-09-26 22:55:00,67.5,65.1,29.96,ESE,113,0.0,0.0,92,0.00,,,0.02,WeatherTracker,2013-09-27 03:55:00,
2013-09-26 23:00:00,67.4,65.0,29.96,ESE,113,0.0,0.0,92,0.00,,,0.02,WeatherTracker,2013-09-27 04:00:00,
2013-09-26 23:05:00,67.3,64.9,29.96,ESE,113,0.0,0.0,92,0.00,,,0.02,WeatherTracker,2013-09-27 04:05:00,
2013-09-26 23:10:00,67.2,64.8,29.96,ESE,113,0.0,0.0,92,0.00,,,0.02,WeatherTracker,2013-09-27 04:10:00,
2013-09-26 23:15:00,67.1,64.7,29.96,ESE,113,0.0,0.0,92,0.00,,,0.02,WeatherTracker,2013-09-27 04:15:00,
2013-09-26 23:20:00,66.9,64.5,29.96,ESE,113,0.0,0.0,92,0.00,,,0.02,WeatherTracker,2013-09-27 04:20:00,
2013-09-26 23:25:00,66.8,64.4,29.96,ESE,113,0.0,0.0,92,0.00,,,0.02,WeatherTracker,2013-09-27 04:25:00,
2013-09-26 23:35:00,66.5,64.1,29.96,ESE,113,0.0,0.0,92,0.00,,,0.02,WeatherTracker,2013-09-27 04:35:00,
2013-09-26 23:40:00,66.5,64.1,29.96,ESE,113,0.0,0.0,92,0.00,,,0.02,WeatherTracker,2013-09-27 04:40:00,
2013-09-26 23:50:00,66.2,64.1,29.96,ESE,113,0.0,0.0,93,0.00,,,0.02,WeatherTracker,2013-09-27 04:50:00,